TimePDT,TemperatureF,Dew PointF,Humidity,Sea Level PressureIn,VisibilityMPH,Wind Direction,Wind SpeedMPH,Gust SpeedMPH,PrecipitationIn,Events,Conditions,WindDirDegrees,DateUTC
12:55 AM,48.9,35.1,59,30.11,10.0,NNW,4.6,-,N/A,,Clear,330,2013-03-31 07:55:00
1:55 AM,48.0,34.0,58,30.11,10.0,WNW,10.4,-,N/A,,Clear,290,2013-03-31 08:55:00
2:55 AM,48.0,34.0,58,30.10,10.0,NW,13.8,-,N/A,,Clear,310,2013-03-31 09:55:00
3:55 AM,43.0,33.1,68,30.09,10.0,WNW,4.6,-,N/A,,Clear,290,2013-03-31 10:55:00
4:55 AM,42.1,33.1,70,30.09,10.0,WNW,8.1,-,N/A,,Clear,290,2013-03-31 11:55:00
5:55 AM,39.9,33.1,77,30.09,10.0,WNW,5.8,-,N/A,,Clear,290,2013-03-31 12:55:00
6:55 AM,41.0,33.1,73,30.11,10.0,WNW,8.1,-,N/A,,Clear,290,2013-03-31 13:55:00
7:55 AM,43.0,34.0,71,30.12,10.0,NNW,3.5,-,N/A,,Clear,330,2013-03-31 14:55:00
8:55 AM,46.9,35.1,63,30.11,10.0,West,5.8,-,N/A,,Clear,280,2013-03-31 15:55:00
9:55 AM,50.0,35.1,57,30.09,10.0,West,5.8,-,N/A,,Clear,260,2013-03-31 16:55:00
10:55 AM,55.0,35.1,47,30.09,10.0,Calm,Calm,-,N/A,,Clear,0,2013-03-31 17:55:00
11:55 AM,59.0,35.1,41,30.07,10.0,Calm,Calm,-,N/A,,Clear,0,2013-03-31 18:55:00
12:55 PM,63.0,36.0,37,30.04,10.0,Calm,Calm,-,N/A,,Clear,0,2013-03-31 19:55:00
1:55 PM,66.9,36.0,32,30.01,10.0,Variable,3.5,-,N/A,,Clear,0,2013-03-31 20:55:00
2:55 PM,69.1,36.0,30,29.99,10.0,WNW,3.5,-,N/A,,Clear,300,2013-03-31 21:55:00
3:55 PM,69.1,35.1,29,29.96,10.0,WSW,6.9,-,N/A,,Clear,250,2013-03-31 22:55:00
5:55 PM,70.0,34.0,27,29.92,10.0,Calm,Calm,-,N/A,,Clear,0,2013-04-01 00:55:00
6:55 PM,69.1,34.0,27,29.91,10.0,Calm,Calm,-,N/A,,Clear,0,2013-04-01 01:55:00
7:55 PM,62.1,36.0,38,29.91,10.0,WNW,3.5,-,N/A,,Clear,290,2013-04-01 02:55:00
8:55 PM,59.0,34.0,39,29.91,10.0,NNW,5.8,-,N/A,,Clear,330,2013-04-01 03:55:00
9:55 PM,57.0,33.1,40,29.92,10.0,West,4.6,-,N/A,,Clear,260,2013-04-01 04:55:00
10:55 PM,57.0,33.1,40,29.93,10.0,WNW,8.1,-,N/A,,Clear,290,2013-04-01 05:55:00
11:55 PM,54.0,34.0,47,29.94,10.0,WNW,9.2,-,N/A,,Clear,300,2013-04-01 06:55:00